Buffalo, NY

11:01 PM EST on November 24, 2017 (GMT -0500)
Buffalo Niagara International

Weather History for KBUF - August, 2013

Change the Weather History Date:

Monday, August 19, 2013

  Actual Average Record
Temperature  
Mean Temperature 70 °F 70 °F  
Max Temperature 79 °F 78 °F 90 °F (1995)
Min Temperature 61 °F 61 °F 46 °F (1963)
Degree Days  
Heating Degree Days 0 1  
Month to date heating degree days 10 4  
Since 1 June heating degree days 80 77  
Since 1 July heating degree days 16 13  
Cooling Degree Days 5 5  
Month to date cooling degree days 58 109  
Year to date cooling degree days 468 435  
Since 1 June cooling degree days 397 409  
Growing Degree Days 20 (Base 50)    
Moisture  
Dew Point 60 °F    
Average Humidity 68    
Maximum Humidity 90    
Minimum Humidity 45    
Precipitation  
Precipitation 0.00 in 0.11 in 1.97 in (1880)
Month to date precipitation 2.05 2.03  
Year to date precipitation 26.17 23.93  
Snow  
Snow 0.00 in 0.00 in 0.00 in ()
Month to date snowfall 0.0 0.0  
Since 1 June snowfall 0.0 0.0  
Since 1 July snowfall 0.0 0.0  
Snow Depth 0.00 in    
Sea Level Pressure  
Sea Level Pressure 30.09 in    
Wind  
Wind Speed 8 mph (SW)    
Max Wind Speed 14 mph    
Max Gust Speed 18 mph    
Visibility 10 miles    
Events      
T = Trace of Precipitation, MM = Missing Value Source: NWS Daily Summary

Daily Weather History Graph

Daily Weather History Graph

Search for Another Location

Airport or City:

Trip Planner

Search our weather history database for the weather conditions in past years. The results will help you decide how hot, cold, wet, or windy it might be!

Date:

Astronomy

Aug. 19, 2013 Rise Set
Actual Time 6:25 AM EDT 8:10 PM EDT
Civil Twilight 5:55 AM EDT 8:40 PM EDT
Nautical Twilight 5:18 AM EDT 9:17 PM EDT
Astronomical Twilight 4:38 AM EDT 9:56 PM EDT
Moon 7:00 PM EDT (8/19) 4:41 AM EDT (8/19)
Length of Visible Light 14h 45m
Length of Day
13h 45m
Waxing Gibbous, 97% of the Moon is Illuminated
Aug 19
Waxing Gibbous
Aug 20
Full
Aug 28
Last Quarter
Sep 5
New
Sep 12
First Quarter

Hourly Weather History & Observations

Time (EDT) Temp. Dew Point Humidity Pressure Visibility Wind Dir Wind Speed Gust Speed Precip Events Conditions
12:54 AM 64.9 °F 59.0 °F 81% 30.13 in 10.0 mi SSW 5.8 mph - N/A   Partly Cloudy
1:54 AM 64.0 °F 59.0 °F 84% 30.12 in 10.0 mi South 5.8 mph - N/A   Scattered Clouds
2:54 AM 63.0 °F 57.9 °F 84% 30.11 in 10.0 mi South 4.6 mph - N/A   Partly Cloudy
3:54 AM 63.0 °F 57.9 °F 84% 30.11 in 10.0 mi South 5.8 mph - N/A   Scattered Clouds
4:54 AM 61.0 °F 57.9 °F 90% 30.11 in 10.0 mi South 4.6 mph - N/A   Mostly Cloudy
5:54 AM 61.0 °F 57.9 °F 90% 30.12 in 10.0 mi South 5.8 mph - N/A   Scattered Clouds
6:54 AM 62.1 °F 57.9 °F 86% 30.11 in 10.0 mi South 4.6 mph - N/A   Scattered Clouds
7:54 AM 64.0 °F 60.1 °F 87% 30.12 in 10.0 mi South 5.8 mph - N/A   Scattered Clouds
8:54 AM 69.1 °F 62.1 °F 78% 30.12 in 10.0 mi SW 6.9 mph - N/A   Scattered Clouds
9:54 AM 72.0 °F 63.0 °F 73% 30.10 in 10.0 mi WSW 8.1 mph - N/A   Scattered Clouds
10:54 AM 75.0 °F 62.1 °F 64% 30.10 in 10.0 mi WSW 6.9 mph - N/A   Scattered Clouds
11:54 AM 75.0 °F 63.0 °F 66% 30.09 in 10.0 mi WSW 9.2 mph - N/A   Scattered Clouds
12:54 PM 77.0 °F 62.1 °F 60% 30.08 in 10.0 mi Variable 6.9 mph 16.1 mph N/A   Partly Cloudy
1:54 PM 79.0 °F 62.1 °F 56% 30.07 in 10.0 mi WSW 8.1 mph - N/A   Scattered Clouds
2:54 PM 79.0 °F 59.0 °F 50% 30.07 in 10.0 mi SW 12.7 mph - N/A   Scattered Clouds
3:54 PM 79.0 °F 55.9 °F 45% 30.06 in 10.0 mi SW 11.5 mph - N/A   Partly Cloudy
4:54 PM 78.1 °F 57.0 °F 48% 30.05 in 10.0 mi SW 9.2 mph - N/A   Partly Cloudy
5:54 PM 75.9 °F 57.0 °F 52% 30.05 in 10.0 mi SW 10.4 mph - N/A   Partly Cloudy
6:54 PM 75.0 °F 59.0 °F 57% 30.05 in 10.0 mi WSW 10.4 mph - N/A   Partly Cloudy
7:54 PM 72.0 °F 61.0 °F 68% 30.05 in 10.0 mi SW 10.4 mph - N/A   Partly Cloudy
8:54 PM 71.1 °F 64.0 °F 78% 30.05 in 10.0 mi SW 8.1 mph - N/A   Partly Cloudy
9:54 PM 70.0 °F 64.0 °F 81% 30.07 in 10.0 mi SW 9.2 mph - N/A   Partly Cloudy
10:54 PM 69.1 °F 63.0 °F 81% 30.06 in 10.0 mi SW 8.1 mph - N/A   Clear
11:54 PM 66.9 °F 63.0 °F 87% 30.07 in 10.0 mi SSW 5.8 mph - N/A   Clear